User: anonymous   Login
Location: Unspecified
(0.0000°N, 0.0000°E)
Time: 19:43:57
(UTC+00:00)
Language:

NADEZHDA 7 - Orbit

View from above orbital plane
View from above orbital plane
View from above satellite
View from above satellite

Ground track
Ground track

The orbit data is extracted from the following two-line orbital elements,

1 27534U 02046A   17268.85450619  .00000038  00000-0  25057-4 0  9999
2 27534  82.9378 164.7431 0035948 184.3727 246.8391 13.72689539751499
Epoch (UTC): 25 September 2017 20:30:29
Eccentricity: 0.0035948
inclination: 82.9378°
perigee height: 963 km
apogee height: 1016 km
right ascension of ascending node: 164.7431°
argument of perigee: 184.3727°
revolutions per day: 13.72689539
mean anomaly at epoch: 246.8391°
orbit number at epoch: 75149

The dashed part of the orbit path shows where the satellite is in the earth's shadow,  

DLR